TimeEST,TemperatureF,Dew PointF,Humidity,Sea Level PressureIn,VisibilityMPH,Wind Direction,Wind SpeedMPH,Gust SpeedMPH,PrecipitationIn,Events,Conditions,WindDirDegrees,DateUTC
12:56 AM,37.9,30.0,73,30.30,10.0,Calm,Calm,-,N/A,,Scattered Clouds,0,2013-01-04 05:56:00
1:56 AM,35.1,30.9,85,30.30,10.0,Calm,Calm,-,N/A,,Mostly Cloudy,0,2013-01-04 06:56:00
2:56 AM,35.1,30.0,82,30.30,10.0,Calm,Calm,-,N/A,,Mostly Cloudy,0,2013-01-04 07:56:00
3:56 AM,33.1,30.9,92,30.29,10.0,Calm,Calm,-,N/A,,Clear,0,2013-01-04 08:56:00
4:56 AM,30.9,30.0,96,30.29,10.0,Calm,Calm,-,N/A,,Clear,0,2013-01-04 09:56:00
5:56 AM,30.0,28.9,96,30.31,10.0,Calm,Calm,-,N/A,,Clear,0,2013-01-04 10:56:00
6:56 AM,30.0,28.0,92,30.32,10.0,Calm,Calm,-,N/A,,Clear,0,2013-01-04 11:56:00
7:56 AM,28.9,27.0,92,30.34,10.0,Calm,Calm,-,N/A,,Clear,0,2013-01-04 12:56:00
8:56 AM,34.0,32.0,92,30.35,10.0,Calm,Calm,-,N/A,,Clear,0,2013-01-04 13:56:00
9:56 AM,39.0,32.0,76,30.36,10.0,Calm,Calm,-,N/A,,Clear,0,2013-01-04 14:56:00
10:56 AM,44.1,30.0,58,30.36,10.0,Variable,3.5,-,N/A,,Clear,0,2013-01-04 15:56:00
11:56 AM,46.0,30.0,54,30.34,10.0,SW,10.4,-,N/A,,Clear,230,2013-01-04 16:56:00
12:56 PM,50.0,30.0,46,30.30,10.0,West,8.1,-,N/A,,Clear,260,2013-01-04 17:56:00
1:56 PM,51.1,24.1,35,30.27,10.0,West,11.5,-,N/A,,Clear,270,2013-01-04 18:56:00
2:56 PM,52.0,25.0,35,30.25,10.0,WSW,10.4,-,N/A,,Clear,240,2013-01-04 19:56:00
3:56 PM,53.1,24.1,32,30.24,10.0,WSW,10.4,-,N/A,,Clear,240,2013-01-04 20:56:00
4:56 PM,52.0,21.9,31,30.25,10.0,West,8.1,-,N/A,,Clear,260,2013-01-04 21:56:00
5:56 PM,48.0,19.0,32,30.27,10.0,West,8.1,-,N/A,,Clear,270,2013-01-04 22:56:00
6:56 PM,45.0,19.0,36,30.30,10.0,West,9.2,-,N/A,,Clear,280,2013-01-04 23:56:00
7:56 PM,41.0,19.9,43,30.32,10.0,NNE,3.5,-,N/A,,Clear,20,2013-01-05 00:56:00
8:56 PM,39.9,19.0,43,30.33,10.0,NW,3.5,-,N/A,,Clear,320,2013-01-05 01:56:00
9:56 PM,36.0,21.9,57,30.35,10.0,North,4.6,-,N/A,,Clear,360,2013-01-05 02:56:00
10:56 PM,32.0,23.0,69,30.35,10.0,Calm,Calm,-,N/A,,Clear,0,2013-01-05 03:56:00
11:56 PM,30.9,21.9,69,30.35,10.0,NNW,4.6,-,N/A,,Clear,330,2013-01-05 04:56:00